Weather Service Report


205 
ASUS42 KFFC 220603
RWRGA 
WEATHER ROUNDUP FOR GEORGIA
NATIONAL WEATHER SERVICE PEACHTREE CITY GA
100 AM EST MON DEC 22 2014

NOTE: "FAIR" INDICATES FEW OR NO CLOUDS BELOW 12,000 FEET WITH NO
SIGNIFICANT WEATHER AND/OR OBSTRUCTIONS TO VISIBILITY. 

* = USE WITH CAUTION. THE STATIONS MARKED WITH AN ASTERISK MAY NOT
REPORT WEATHER SUCH AS PRECIPITATION, FOG, OR THUNDER AND ARE NOT 
QUALITY CONTROLLED BY NWS.

THE REMARK "TC" DENOTES TEMPERATURE READING IN DEGREES CELSIUS.

GAZ001>058-220700-
NORTH GEORGIA
  
CITY           SKY/WX    TMP DP  RH WIND       PRES   REMARKS
ATLANTA        DRIZZLE   47  44  90 E12       30.07S FOG              
6HR MIN TEMP:  47; 6HR MAX TEMP:  50; 6HR PCP: TRACE;                

ATHENS         CLOUDY    45  44  97 NE8       30.10F FOG              
6HR MIN TEMP:  45; 6HR MAX TEMP:  50; 6HR PCP: TRACE;                

CHAMBLEE       CLOUDY    46  44  93 E7        30.08F FOG              
6HR MIN TEMP:  46; 6HR MAX TEMP:  48; 6HR PCP: TRACE;                

PEACHTREE CITY CLOUDY    48  46  93 E6        30.06F FOG              
6HR MIN TEMP:  48; 6HR MAX TEMP:  50; 6HR PCP: TRACE;                

ROME           CLOUDY    50  43  77 SE5       30.06F                  
6HR MIN TEMP:  49; 6HR MAX TEMP:  50;                                

WEST ATLANTA   CLOUDY    48  44  86 E7        30.07F                  
6HR MIN TEMP:  48; 6HR MAX TEMP:  50; 6HR PCP: TRACE;                

GAINESVILLE    CLOUDY    44  41  89 E9        30.11F FOG              
6HR MIN TEMP:  44; 6HR MAX TEMP:  47; 6HR PCP: TRACE;                

CARTERSVILLE   CLOUDY    49  42  77 E9G16     30.08F                  
6HR MIN TEMP:  49; 6HR MAX TEMP:  49;                                


  
CITY           SKY/WX    TMP DP  RH WIND       PRES   REMARKS
DALTON*        CLOUDY    46  45  93 CALM      30.07F                  
MARIETTA       CLOUDY    47  45  94 E9        30.08S FOG              
$$

GAZ059>098-102>109-220700-
CENTRAL GEORGIA
  
CITY           SKY/WX    TMP DP  RH WIND       PRES   REMARKS
AUGUSTA-BUSH   LGT RAIN  47  46  97 CALM      30.11S FOG              
6HR MIN TEMP:  47; 6HR MAX TEMP:  49; 6HR PCP:  0.13;                

AUGUSTA-DANIEL LGT RAIN  48  47  96 N6        30.11S FOG              
6HR MIN TEMP:  48; 6HR MAX TEMP:  51; 6HR PCP:  0.08;                

COLUMBUS       CLOUDY    49  47  93 E9        30.04F                  
6HR MIN TEMP:  49; 6HR MAX TEMP:  51;                                

MACON          CLOUDY    47  47 100 E6        30.06F FOG              
6HR MIN TEMP:  47; 6HR MAX TEMP:  49; 6HR PCP:  0.03;                

ROBINS AFB     CLOUDY    48  47  97 NE2       30.04F                  

  
CITY           SKY/WX    TMP DP  RH WIND       PRES   REMARKS
LAGRANGE*      LGT RAIN  52  51  98 E3        30.05F                  
SYLVANIA*      DRIZZLE   47  47 100 NE5       30.09S                  
MILLEDGEVILLE* CLOUDY    48  48 100 CALM      30.09F FOG              
$$

GAZ099>101-110>166-220700-
SOUTH GEORGIA
  
CITY           SKY/WX    TMP DP  RH WIND       PRES   REMARKS
SAVANNAH       CLOUDY    48  46  93 N5        30.07F                  
6HR MIN TEMP:  47; 6HR MAX TEMP:  48; 6HR PCP:  0.42;                

VALDOSTA       CLOUDY    52  52 100 E8        30.00F                  
6HR MIN TEMP:  52; 6HR MAX TEMP:  54; 6HR PCP:  0.07;                

ALMA           CLOUDY    48  47  96 VRB3      30.04F FOG              
6HR MIN TEMP:  48; 6HR MAX TEMP:  50; 6HR PCP:  0.01;                

ST SIMONS      LGT RAIN  54  52  93 N7        30.05F FOG              
6HR MIN TEMP:  54; 6HR MAX TEMP:  56; 6HR PCP:  0.17;                

FT STEWART     CLOUDY    47  46  94 NE6       30.05F                  
ALBANY         CLOUDY    50  49  96 N8        30.04F FOG              
HUNTER AFB     CLOUDY    48  48 100 NE3       30.04F                  
MOODY AFB      LGT RAIN  51  50  96 E9        29.99F                  
BRUNSWICK      CLOUDY    54  52  94 N3        30.07F                  

  
CITY           SKY/WX    TMP DP  RH WIND       PRES   REMARKS
BAINBRIDGE*    LGT RAIN  54  54 100 N8        30.00F                  
MOULTRIE*      DRIZZLE   52  52 100 N6        30.02R                  
VIDALIA*       CLOUDY    46  46 100 NE6       30.07R FOG              
WAYCROSS*      CLOUDY    53  52  98 E5        30.05F                  
DOUGLAS*       CLOUDY    50  48  93 E5        30.05F FOG              
$$

Return to Home page


Western Regional Climate Center, wrcc@dri.edu